TimeEDT,TemperatureF,Dew PointF,Humidity,Sea Level PressureIn,VisibilityMPH,Wind Direction,Wind SpeedMPH,Gust SpeedMPH,PrecipitationIn,Events,Conditions,WindDirDegrees,DateUTC
12:56 AM,79.0,71.1,77,29.78,10.0,WNW,8.1,-,N/A,,Clear,290,2013-06-28 04:56:00
1:56 AM,77.0,71.1,82,29.78,10.0,West,8.1,-,N/A,,Clear,270,2013-06-28 05:56:00
2:56 AM,75.0,70.0,84,29.78,10.0,West,4.6,-,N/A,,Clear,260,2013-06-28 06:56:00
3:56 AM,75.0,70.0,84,29.76,10.0,West,3.5,-,N/A,,Clear,270,2013-06-28 07:56:00
4:56 AM,73.9,69.1,85,29.75,10.0,West,3.5,-,N/A,,Clear,260,2013-06-28 08:56:00
5:56 AM,73.9,70.0,87,29.76,10.0,West,6.9,-,N/A,,Clear,280,2013-06-28 09:56:00
6:56 AM,73.9,70.0,87,29.75,10.0,WSW,4.6,-,N/A,,Clear,240,2013-06-28 10:56:00
7:56 AM,77.0,71.1,82,29.76,10.0,West,8.1,-,N/A,,Clear,280,2013-06-28 11:56:00
8:56 AM,80.1,71.1,74,29.76,10.0,West,5.8,-,N/A,,Clear,270,2013-06-28 12:56:00
9:56 AM,82.9,72.0,69,29.76,10.0,WSW,11.5,-,N/A,,Clear,250,2013-06-28 13:56:00
10:56 AM,84.9,71.1,63,29.75,10.0,West,9.2,-,N/A,,Clear,260,2013-06-28 14:56:00
11:56 AM,84.9,71.1,63,29.75,10.0,West,8.1,-,N/A,,Partly Cloudy,270,2013-06-28 15:56:00
12:56 PM,89.1,71.1,55,29.74,10.0,WSW,11.5,-,N/A,,Clear,250,2013-06-28 16:56:00
1:56 PM,90.0,71.1,54,29.71,10.0,West,12.7,-,N/A,,Clear,260,2013-06-28 17:56:00
2:56 PM,91.0,69.1,48,29.67,10.0,WSW,10.4,17.3,N/A,,Clear,250,2013-06-28 18:56:00
3:56 PM,93.0,69.1,45,29.65,10.0,SW,11.5,-,N/A,,Clear,220,2013-06-28 19:56:00
4:56 PM,93.0,66.9,42,29.63,10.0,WSW,6.9,-,N/A,,Clear,240,2013-06-28 20:56:00
5:56 PM,90.0,70.0,52,29.63,10.0,SW,8.1,-,N/A,,Clear,220,2013-06-28 21:56:00
6:56 PM,86.0,72.0,63,29.63,10.0,SW,5.8,-,N/A,,Clear,220,2013-06-28 22:56:00
7:32 PM,80.6,69.8,70,29.71,10.0,West,21.9,34.5,N/A,Thunderstorm,Mostly Cloudy,270,2013-06-28 23:32:00
7:56 PM,73.9,71.1,91,29.71,10.0,SW,19.6,28.8,0.00,Rain-Thunderstorm,Light Thunderstorms and Rain,220,2013-06-28 23:56:00
8:31 PM,71.6,69.8,94,29.70,10.0,South,9.2,-,0.03,Rain,Light Rain,170,2013-06-29 00:31:00
8:56 PM,72.0,70.0,93,29.67,10.0,WNW,5.8,-,0.03,,Mostly Cloudy,290,2013-06-29 00:56:00
9:56 PM,73.0,70.0,90,29.68,10.0,SW,10.4,-,N/A,,Mostly Cloudy,220,2013-06-29 01:56:00
10:56 PM,73.0,71.1,93,29.68,10.0,SW,12.7,20.7,0.00,Rain,Light Rain,230,2013-06-29 02:56:00
11:56 PM,73.0,71.1,93,29.68,10.0,West,6.9,-,0.00,,Scattered Clouds,260,2013-06-29 03:56:00